Location: Bonny Doon Airfield
(37.0704°N, 122.1252°W)
Time: 13:42:35
(UTC-07:00)

BREEZE M DEB (TANK) - Visible Passes

Search period start: 25 May 2016 00:00
Search period end: 04 June 2016 00:00
Orbit: 336 x 13714 km, 49.6° (Epoch: 24 May)

Date Brightness Start Highest point End Pass type
(mag) Time Alt. Az. Time Alt. Az. Time Alt. Az.
25 May 7.0 01:54:24 10° SW 03:08:43 73° NW 03:20:29 10° NE visible
25 May 7.9 22:41:51 10° SSW 00:20:11 64° SE 00:41:16 10° ENE visible
26 May 6.5 04:27:30 10° W 05:01:13 47° NNW 05:08:31 10° ENE visible
26 May 8.5 20:17:36 10° SSE 21:27:55 28° ESE 21:56:34 10° ENE visible
27 May 7.2 00:48:37 10° SW 02:16:01 83° NW 02:30:02 10° NE visible
27 May 8.2 21:48:00 10° S 23:25:38 55° SE 23:50:06 10° ENE visible
28 May 6.8 03:20:30 10° WSW 04:09:13 54° NNW 04:18:07 10° NE visible
28 May 8.7 19:41:01 10° SE 20:34:17 20° ESE 21:01:09 10° ENE visible
28 May 7.5 23:46:08 10° SSW 01:22:47 86° SE 01:39:26 10° NE visible
29 May 8.3 20:57:03 10° S 22:30:49 47° ESE 22:58:30 10° ENE visible
30 May 7.0 02:10:48 10° WSW 03:16:56 63° NNW 03:27:40 10° NE visible
30 May 7.8 22:46:54 10° SSW 00:28:54 76° SE 00:48:39 10° NE visible
31 May 6.4 04:42:52 10° W 05:09:27 44° N 05:15:50 10° ENE visible
31 May 8.4 20:09:27 10° SSE 21:36:05 38° ESE 22:06:14 10° ENE visible
01 Jun 7.2 01:01:52 10° SW 02:24:14 72° NNW 02:37:09 10° NE visible
01 Jun 8.1 21:50:35 10° SSW 23:34:23 67° SE 23:57:39 10° ENE visible
02 Jun 6.7 03:38:22 10° W 04:17:25 49° NNW 04:25:18 10° ENE visible
02 Jun 8.5 19:26:11 10° SSE 20:41:44 30° ESE 21:12:54 10° ENE visible
02 Jun 7.4 23:56:07 10° SW 01:31:03 82° NW 01:46:31 10° NE visible
03 Jun 8.2 20:56:58 10° S 22:39:24 58° SE 23:06:17 10° ENE visible
